COSMOS 1275 DEB, 39951

Orbit data source: Space-Track

COSMOS 1275 DEB, 39951 is space debris in LEO originally from a launch on Thu, 04 Jun 1981 UTC launched from the Plesetsk Missile And Space Complex (PKMTR). Debris objects in space refer to the collection of defunct objects orbiting the Earth. Examples of debris include non-operational satellites, rocket bodies, and fragments generated from explosions, collisions, or faulty payload assembly.

Loading next visibility...
Identifier
39951, 1981-053NM
Orbit
LEO
Country
Flag of CISCIS
Related business
Manufacturer
Unknown
Mission
Spacecraft
Bus & Motor
Unknown
Mass
Unknown
Launch date (UTC)
1981-06-04 (45 years ago)
Launch vehicle
Unknown
Launch site
Plesetsk Missile And Space Complex (PKMTR)
Object type
Payload
Rocket body
Debris
Shape & HBR
Unknown shape, 0.1 m
Radar Cross Section
Small (<0.1 m²)

Expand to show TLE details & history
Last TLE update: 3 days ago

TLE from 3 days ago
0 COSMOS 1275 DEB
1 39951U 81053NM  26171.02255768  .00002519  00000-0  11548-2 0  9994
2 39951  82.8213 194.1001 0056578 180.3317 179.7837 14.20176446617565
Epoch: 2026-06-20T00:32Z
TLE epoch observation values (Epoch: 2026-06-20T00:32:28.983Z)
Latitude
-0°
Longitude
-82.26381°
Altitude
868.476 km
Speed
7.397 km/s
True Right ascension
12h 56m 24s
True Declination
0° 00' 00"
Sunlit
Object was in daylight at epoch
Visualization orbit readout
Latitude
Unknown
Longitude
Unknown
Altitude
Unknown
Speed
Unknown
Apparent Right ascension
Unknown
Apparent Declination
Unknown
Sunlit
N/A
Visualization observer readout
Local Sidereal Time
02:31:48
Azimuth
Unknown
Elevation
Unknown
Doppler factor
Unknown
Orbital elements
Apogee altitude
862.583 km
Perigee altitude
781.111 km
Semi-major axis
7,199.984 km
Eccentricity
0.00566
Inclination
82.8213°
RAAN
194.1001°
Arg. of periapsis
180.3317°
True anomaly
179.78613°
Mean anomaly
179.7837°
Eccentric anomaly
179.78492°
Mean motion
3.5526 °/min
Orbital period
101.33 mins
BSTAR
0.0011548
Loading maneuver chart data...
Computing Atmospheric mass density...

Documentation

Showing up to 5 results
|